User: anonymous   Login
Location: Unspecified
(0.0000°N, 0.0000°E)
Time: 19:23:31
(UTC+02:00)
Language:

ATLAS 5 CENTAUR R/B - Orbit

View from above orbital plane
View from above orbital plane
View from above satellite
View from above satellite

Ground track
Ground track

The orbit data is extracted from the following two-line orbital elements,

1 31702U 07027B   16115.85005287 0.00000400  00000-0  15031-3 0    08
2 31702  63.3707   1.4251 0224000 358.9133   1.0867 14.18483526    08
Epoch (UTC): 24 April 2016 20:24:04
Eccentricity: 0.0224000
inclination: 63.3707°
perigee height: 669 km
apogee height: 992 km
right ascension of ascending node: 1.4251°
argument of perigee: 358.9133°
revolutions per day: 14.18483526
mean anomaly at epoch: 1.0867°
orbit number at epoch: 0

The dashed part of the orbit path shows where the satellite is in the earth's shadow,  

DLR